カタログに戻る

SL-12 DEB

LostHEO
NORAD 27992·DEBRIS·🇷🇺 Russia

打ち上げ Sep 16, 1988 から Baikonur Cosmodrome

Loading…

次のパス (今後24時間)

TLE

古いSource: Space-Track

元期: May 8, 2006, 10:11 UTC

1 27992U 88085AN  06128.42432250 -.00000008 +00000-0 +10000-3 0  9990
2 27992 064.2163 246.3969 5362408 024.4019 353.5677 04.49145847046349

AllMySatでSL-12 DEBをリアルタイム追跡

Download on the App Store